Forecast Directory
U.S. Alerts
El Dorado Weather Logo
U.S. Radar Loop Conditions Map

U.S. Color Satellite North America Color Infrared Animated Satellite Loop

Interactive Wx Map Live U.S. Google Map Radar Thumbnail Image

US Precipitation 1 day, 24 hour precipitation map

US Temperatures US Conditions Map

US Climate Data US Conditions Map


NOAA NWS Hourly Roundups by Site
Regional Weather Roundup for Sacramento, CA
Select Site:  

000
ASUS46 KSTO 011915
RWRCA

NORTHERN AND CENTRAL CA REGIONAL WEATHER ROUNDUP
NATIONAL WEATHER SERVICE SACRAMENTO CA
1100 AM PST MON MAR 01 2021

NOTE: FAIR INDICATES FEW OR NO CLOUDS BELOW 12,000 FEET WITH NO
SIGNIFICANT WEATHER AND/OR OBSTRUCTIONS TO VISIBILITY.

CAZ001-003-012000-
NORTHWEST AREA

CITY           SKY/WX    TMP DP  RH WIND       PRES   REMARKS
CRESCENT CITY  MOSUNNY   51  41  68 S8        30.08F
UKIAH          SUNNY     59  30  33 S14       30.11F
$$

CAZ006-505>513-012000-
BAY AREA

CITY           SKY/WX    TMP DP  RH WIND       PRES   REMARKS
SANTA ROSA     MOSUNNY   55  42  61 S5        30.16F
SAN RAFAEL     N/A       59  MM  MM MISG
NAPA           SUNNY     58  40  51 VRB5      30.17S
CONCORD        SUNNY     61  34  36 VRB3      30.15F
OAKLAND CITY   N/A       57  MM  MM MISG
OAKLAND        MOSUNNY   62  36  37 NW7       30.17F
SAN FRAN CITY  N/A       58  MM  48 MISG
SAN FRAN ARPT  MOSUNNY   62  37  39 E6        30.15F
LIVERMORE      SUNNY     62  27  26 S5        30.14F
HAYWARD        SUNNY     60  30  32 NW5       30.15F
REDWOOD CITY   N/A       59  MM  47 MISG
MOFFETT ARPT   SUNNY     59  34  38 N7        30.15F
SAN JOSE ARPT  MOSUNNY   65  21  18 VRB3      30.14F
$$
CAZ034-037-514>518-012000-
CENTRAL COAST

CITY           SKY/WX    TMP DP  RH WIND       PRES   REMARKS
WATSONVILLE    SUNNY     60  32  34 S5        30.18S
SALINAS        SUNNY     65  30  27 S9        30.15S
MONTEREY       SUNNY     56  42  59 N6        30.18S
SAN LUIS OBISP SUNNY     68  15  13 S9        30.17S
SANTA MARIA    SUNNY     70  14  11 S14G22    30.17F
HALF MOON BAY  FAIR      54  46  76 S7        30.18S
$$
CAZ015-016-012000-
NORTHERN SACRAMENTO VALLEY

CITY           SKY/WX    TMP DP  RH WIND       PRES   REMARKS
REDDING        SUNNY     59  32  36 CALM      30.16F
RED BLUFF      SUNNY     58  32  37 CALM      30.18F
OROVILLE       SUNNY     64  32  30 S7        30.18F
$$
CAZ016>018-012000-
SOUTHERN SACRAMENTO VALLEY

CITY           SKY/WX    TMP DP  RH WIND       PRES   REMARKS
AUBURN         SUNNY     63  21  20 S13       30.17S
BEALE AFB      SUNNY     62  33  34 SW6       30.16F
LINCOLN        FAIR      59  34  38 W6        30.16S
MARYSVILLE     SUNNY     60  31  33 S9        30.18S
SAC INTL ARPT  SUNNY     58  36  43 S8        30.17F
MATHER AIRPORT SUNNY     63  34  34 S6        30.15F
DOWNTOWN SAC   N/A       63  MM  MM MISG
SAC EXEC ARPT  SUNNY     58  35  42 VRB5      30.17S
VACAVILLE      SUNNY     59  37  44 CALM      30.17F
TRAVIS AFB     SUNNY     66  42  41 W5        30.16F
$$
CAZ019>021-012000-
SAN JOAQUIN VALLEY

CITY           SKY/WX    TMP DP  RH WIND       PRES   REMARKS
STOCKTON       SUNNY     66  31  27 S15       30.15F
MODESTO        SUNNY     61  29  29 SE9       30.15F
LEMOORE        SUNNY     68  16  13 S15       30.17F
FRESNO         SUNNY     64  26  23 S7        30.19F
HANFORD        SUNNY     61  28  28 S6        30.19F
PORTERVILLE    SUNNY     68  28  22 W6        30.18F
BAKERSFIELD    SUNNY     73   5   7 S16G25    30.15F
$$
CAZ011-012-071-012000-
NORTHERN MOUNTAINS

CITY           SKY/WX    TMP DP  RH WIND       PRES   REMARKS
YREKA          SUNNY     55  28  35 S14G20    30.11F
MOUNT SHASTA   SUNNY     48  27  44 CALM      30.13F
ALTURAS        SUNNY     49  19  30 S17G25    30.14F
$$
CAZ011-012-071-012000-
SIERRA NEVADA MTNS

CITY           SKY/WX    TMP DP  RH WIND       PRES   REMARKS
BLUE CANYON    SUNNY     45  19  35 S12G20    30.20S
TAHOE VLY ARPT SUNNY     48   8  19 MISG      30.16S
MAMMOTH LAKES  FAIR      39   5  24 SE5       30.25F
$$


 

View Past Reports for Sacramento, CA.

Products Courtesy of NOAA-NWS
NWS Information Parsing Script by Ken True at Saratoga Weather - Script by SE Lincoln Weather.



Contact Us | Mobile
Never base any life decisions on weather information from this site or anywhere over the Internet.
Site is dedicated to our Lord & Savior Jesus Christ | Random Quotes of Jesus

Copyright © 2021 El Dorado Weather, Inc. | Site Designed By:  El Dorado Weather